DAL5303 KLAX-KSFO

Flight info

Callsign DAL5303
Flight time 0h 53m
Altitude 34000
Route SUMMR2 STOKD SERFR SERFR4
Aircraft B738/M-SDE2E3FGHIRWXY/LB1

Departure

Time 2026-04-21 21:42
Airport Los Angeles International Airport (KLAX)

Arrival

Time 2026-04-21 22:35
Airport San Francisco International Airport (KSFO)
Time Latitude Longitude Altitude Speed Heading
2026-04-21 21:21 33.94058 -118.40374 92 ft 0 kts 262°
2026-04-21 21:21 33.94059 -118.40374 92 ft 0 kts 262°
2026-04-21 21:25 33.94058 -118.40375 92 ft 2 kts 257°
2026-04-21 21:25 33.94039 -118.40371 92 ft 5 kts 139°
2026-04-21 21:25 33.94028 -118.40356 92 ft 1 kts 129°
2026-04-21 21:26 33.94018 -118.40345 93 ft 3 kts 141°
2026-04-21 21:26 33.93999 -118.40319 92 ft 5 kts 128°
2026-04-21 21:26 33.93983 -118.40307 92 ft 0 kts 162°
2026-04-21 21:28 33.93972 -118.40303 94 ft 6 kts 166°
2026-04-21 21:29 33.93914 -118.40293 94 ft 8 kts 172°
2026-04-21 21:29 33.93897 -118.40290 94 ft 4 kts 173°
2026-04-21 21:29 33.93896 -118.40290 95 ft 0 kts 173°
2026-04-21 21:31 33.93892 -118.40289 94 ft 2 kts 171°
2026-04-21 21:31 33.93858 -118.40247 96 ft 11 kts 101°
2026-04-21 21:32 33.93868 -118.40123 98 ft 17 kts 83°
2026-04-21 21:32 33.93881 -118.39981 95 ft 17 kts 82°
2026-04-21 21:32 33.93896 -118.39833 96 ft 23 kts 83°
2026-04-21 21:32 33.93921 -118.39589 94 ft 35 kts 83°
2026-04-21 21:33 33.93951 -118.39298 94 ft 34 kts 83°
2026-04-21 21:33 33.93974 -118.39076 93 ft 20 kts 84°
2026-04-21 21:33 33.93984 -118.38972 95 ft 10 kts 83°
2026-04-21 21:33 33.93993 -118.38879 93 ft 16 kts 82°
2026-04-21 21:34 33.94009 -118.38732 94 ft 20 kts 83°
2026-04-21 21:34 33.94027 -118.38553 95 ft 23 kts 83°
2026-04-21 21:34 33.94039 -118.38430 98 ft 9 kts 83°
2026-04-21 21:34 33.94043 -118.38397 96 ft 4 kts 81°
2026-04-21 21:35 33.94050 -118.38327 95 ft 12 kts 83°
2026-04-21 21:35 33.94069 -118.38149 93 ft 27 kts 82°
2026-04-21 21:35 33.94073 -118.38033 92 ft 0 kts 112°
2026-04-21 21:40 33.94028 -118.38000 94 ft 12 kts 175°
2026-04-21 21:41 33.93976 -118.38086 93 ft 18 kts 261°
2026-04-21 21:41 33.93974 -118.38108 93 ft 0 kts 263°
2026-04-21 21:41 33.93962 -118.38232 96 ft 51 kts 263°
2026-04-21 21:41 33.93884 -118.38989 94 ft 130 kts 262°
2026-04-21 21:42 33.93744 -118.40344 114 ft 193 kts 262°
2026-04-21 21:42 33.93535 -118.42075 612 ft 217 kts 258°
2026-04-21 21:42 33.93370 -118.43931 1441 ft 229 kts 263°
2026-04-21 21:42 33.93282 -118.45853 2340 ft 235 kts 263°
2026-04-21 21:43 33.93193 -118.47843 3345 ft 237 kts 269°
2026-04-21 21:43 33.93385 -118.49876 4005 ft 250 kts 270°
2026-04-21 21:43 33.93347 -118.52010 4652 ft 259 kts 263°
2026-04-21 21:43 33.93205 -118.54163 5560 ft 256 kts 262°
2026-04-21 21:44 33.93066 -118.56264 6655 ft 247 kts 263°
2026-04-21 21:44 33.92940 -118.58315 7523 ft 246 kts 262°
2026-04-21 21:44 33.92819 -118.60396 8223 ft 255 kts 262°
2026-04-21 21:44 33.92697 -118.62598 8819 ft 270 kts 263°
2026-04-21 21:45 33.92581 -118.64860 9674 ft 269 kts 263°
2026-04-21 21:45 33.92474 -118.67066 10725 ft 259 kts 263°
2026-04-21 21:45 33.92370 -118.69237 11294 ft 271 kts 263°
2026-04-21 21:45 33.92252 -118.71604 11424 ft 294 kts 263°
2026-04-21 21:46 33.92129 -118.74138 11578 ft 313 kts 264°
2026-04-21 21:46 33.92000 -118.76836 11685 ft 332 kts 264°
2026-04-21 21:46 33.91856 -118.79689 11816 ft 351 kts 264°
2026-04-21 21:46 33.91708 -118.82682 11902 ft 365 kts 264°
2026-04-21 21:47 33.91671 -118.85784 11926 ft 375 kts 269°
2026-04-21 21:47 33.91792 -118.88819 11934 ft 349 kts 270°
2026-04-21 21:47 33.91923 -118.91639 11954 ft 327 kts 269°
2026-04-21 21:47 33.92023 -118.94261 11953 ft 309 kts 269°
2026-04-21 21:48 33.92103 -118.96787 11960 ft 295 kts 268°
2026-04-21 21:48 33.92175 -118.99204 11967 ft 283 kts 268°
2026-04-21 21:48 33.92405 -119.01523 11959 ft 278 kts 281°
2026-04-21 21:48 33.93178 -119.03641 11971 ft 276 kts 293°
2026-04-21 21:49 33.94171 -119.05588 11964 ft 270 kts 295°
2026-04-21 21:49 33.95177 -119.07461 11972 ft 264 kts 295°
2026-04-21 21:49 33.96159 -119.09299 11984 ft 259 kts 295°
2026-04-21 21:49 33.97133 -119.11165 11995 ft 270 kts 295°
2026-04-21 21:50 33.98178 -119.13192 12021 ft 299 kts 295°
2026-04-21 21:50 33.99325 -119.15425 12027 ft 326 kts 296°
2026-04-21 21:50 34.00575 -119.17813 12067 ft 348 kts 299°
2026-04-21 21:50 34.02339 -119.19952 12159 ft 373 kts 318°
2026-04-21 21:51 34.04474 -119.21724 12690 ft 373 kts 318°
2026-04-21 21:51 34.06601 -119.23508 13192 ft 372 kts 317°
2026-04-21 21:51 34.08714 -119.25296 13719 ft 370 kts 317°
2026-04-21 21:51 34.10810 -119.27082 14190 ft 368 kts 316°
2026-04-21 21:52 34.12890 -119.28863 14664 ft 366 kts 316°
2026-04-21 21:52 34.14960 -119.30640 15134 ft 363 kts 316°
2026-04-21 21:52 34.17019 -119.32412 15555 ft 365 kts 316°
2026-04-21 21:52 34.19090 -119.34197 15972 ft 367 kts 315°
2026-04-21 21:53 34.21171 -119.35993 16436 ft 368 kts 315°
2026-04-21 21:53 34.23260 -119.37796 16868 ft 370 kts 315°
2026-04-21 21:53 34.25355 -119.39606 17301 ft 370 kts 315°
2026-04-21 21:53 34.27451 -119.41417 17748 ft 371 kts 314°
2026-04-21 21:54 34.29552 -119.43233 18199 ft 370 kts 314°
2026-04-21 21:54 34.31641 -119.45040 18612 ft 369 kts 314°
2026-04-21 21:54 34.33730 -119.46847 18995 ft 368 kts 314°
2026-04-21 21:54 34.35809 -119.48648 19399 ft 367 kts 314°
2026-04-21 21:55 34.37880 -119.50444 19797 ft 365 kts 313°
2026-04-21 21:55 34.39915 -119.52208 20216 ft 364 kts 313°
2026-04-21 21:55 34.41913 -119.54047 20584 ft 356 kts 308°
2026-04-21 21:55 34.43696 -119.56087 20956 ft 350 kts 304°
2026-04-21 21:56 34.45385 -119.58197 21312 ft 348 kts 303°
2026-04-21 21:56 34.47047 -119.60330 21592 ft 349 kts 303°
2026-04-21 21:56 34.48740 -119.62458 21970 ft 352 kts 305°
2026-04-21 21:56 34.50465 -119.64539 22178 ft 348 kts 303°
2026-04-21 21:57 34.52103 -119.66691 22531 ft 347 kts 302°
2026-04-21 21:57 34.53767 -119.68818 22860 ft 348 kts 303°
2026-04-21 21:57 34.55500 -119.70887 23204 ft 350 kts 304°
2026-04-21 21:57 34.57203 -119.72970 23525 ft 345 kts 303°
2026-04-21 21:58 34.58877 -119.75058 23826 ft 345 kts 303°
2026-04-21 21:58 34.60549 -119.77141 24076 ft 344 kts 303°
2026-04-21 21:58 34.62215 -119.79206 24348 ft 342 kts 303°
2026-04-21 21:58 34.63845 -119.81288 24618 ft 340 kts 302°
2026-04-21 21:59 34.65501 -119.83351 24871 ft 342 kts 303°
2026-04-21 21:59 34.67174 -119.85408 25098 ft 342 kts 303°
2026-04-21 21:59 34.68845 -119.87469 25336 ft 343 kts 303°
2026-04-21 21:59 34.70518 -119.89532 25593 ft 342 kts 303°
2026-04-21 22:00 34.72192 -119.91590 25829 ft 343 kts 303°
2026-04-21 22:00 34.73840 -119.93685 26059 ft 340 kts 301°
2026-04-21 22:00 34.75483 -119.95750 26310 ft 340 kts 302°
2026-04-21 22:00 34.77139 -119.97793 26553 ft 339 kts 301°
2026-04-21 22:01 34.78841 -119.99778 26829 ft 342 kts 305°
2026-04-21 22:01 34.80521 -120.01767 27033 ft 333 kts 301°
2026-04-21 22:01 34.82099 -120.03820 27276 ft 330 kts 300°
2026-04-21 22:01 34.83699 -120.05818 27571 ft 330 kts 301°
2026-04-21 22:02 34.85285 -120.07801 27843 ft 324 kts 301°
2026-04-21 22:02 34.86847 -120.09770 28107 ft 323 kts 300°
2026-04-21 22:02 34.88403 -120.11733 28362 ft 321 kts 301°
2026-04-21 22:02 34.89954 -120.13689 28630 ft 320 kts 301°
2026-04-21 22:03 34.90978 -120.14970 28878 ft 319 kts 300°
2026-04-21 22:03 34.92509 -120.16903 29103 ft 312 kts 296°
2026-04-21 22:03 34.93880 -120.18922 29405 ft 311 kts 298°
2026-04-21 22:03 34.95980 -120.21403 29631 ft 321 kts 303°
2026-04-21 22:04 34.97098 -120.22634 29791 ft 319 kts 302°
2026-04-21 22:04 34.98664 -120.24510 30012 ft 314 kts 300°
2026-04-21 22:04 35.00174 -120.26417 30207 ft 311 kts 299°
2026-04-21 22:04 35.01665 -120.28316 30407 ft 310 kts 299°
2026-04-21 22:05 35.03155 -120.30211 30583 ft 308 kts 299°
2026-04-21 22:05 35.04641 -120.32089 30773 ft 307 kts 299°
2026-04-21 22:05 35.06124 -120.33955 30966 ft 305 kts 299°
2026-04-21 22:05 35.07601 -120.35811 31204 ft 304 kts 299°
2026-04-21 22:06 35.09074 -120.37651 31387 ft 303 kts 301°
2026-04-21 22:06 35.10589 -120.39403 31577 ft 304 kts 302°
2026-04-21 22:06 35.12167 -120.41160 31783 ft 302 kts 303°
2026-04-21 22:06 35.13702 -120.42857 31906 ft 302 kts 303°
2026-04-21 22:07 35.15291 -120.44592 32035 ft 306 kts 307°
2026-04-21 22:07 35.17056 -120.46080 32149 ft 317 kts 313°
2026-04-21 22:07 35.18965 -120.47446 32281 ft 319 kts 314°
2026-04-21 22:07 35.20900 -120.48777 32409 ft 319 kts 315°
2026-04-21 22:08 35.22828 -120.50107 32532 ft 318 kts 314°
2026-04-21 22:08 35.24746 -120.51448 32733 ft 317 kts 314°
2026-04-21 22:08 35.26654 -120.52801 32853 ft 316 kts 314°
2026-04-21 22:08 35.28549 -120.54162 32960 ft 317 kts 314°
2026-04-21 22:09 35.30470 -120.55544 32965 ft 321 kts 313°
2026-04-21 22:09 35.34337 -120.58364 32948 ft 328 kts 314°
2026-04-21 22:10 35.38329 -120.61301 32977 ft 342 kts 314°
2026-04-21 22:10 35.42489 -120.64363 33040 ft 356 kts 315°
2026-04-21 22:11 35.46830 -120.67560 32998 ft 372 kts 315°
2026-04-21 22:11 35.51364 -120.70899 32985 ft 388 kts 316°
2026-04-21 22:12 35.56070 -120.74364 32995 ft 401 kts 316°
2026-04-21 22:12 35.60936 -120.77951 33062 ft 414 kts 317°
2026-04-21 22:13 35.65968 -120.81668 32994 ft 428 kts 317°
2026-04-21 22:13 35.71141 -120.85492 32989 ft 440 kts 317°
2026-04-21 22:14 35.76446 -120.89422 32968 ft 450 kts 318°
2026-04-21 22:14 35.81853 -120.93434 32965 ft 457 kts 319°
2026-04-21 22:15 35.87282 -120.97461 32960 ft 454 kts 318°
2026-04-21 22:15 35.92619 -121.01416 32627 ft 440 kts 318°
2026-04-21 22:15 35.95221 -121.03347 32212 ft 433 kts 318°
2026-04-21 22:16 35.97787 -121.05257 31877 ft 428 kts 319°
2026-04-21 22:16 36.00322 -121.07149 31473 ft 423 kts 318°
2026-04-21 22:16 36.02824 -121.09019 31061 ft 419 kts 318°
2026-04-21 22:16 36.05325 -121.10895 30327 ft 422 kts 318°
2026-04-21 22:17 36.07832 -121.12781 29550 ft 423 kts 318°
2026-04-21 22:17 36.10350 -121.14671 28728 ft 424 kts 318°
2026-04-21 22:17 36.12877 -121.16575 27921 ft 425 kts 319°
2026-04-21 22:17 36.15405 -121.18479 27171 ft 426 kts 320°
2026-04-21 22:18 36.17910 -121.20363 26441 ft 428 kts 320°
2026-04-21 22:18 36.20452 -121.22281 25698 ft 428 kts 320°
2026-04-21 22:18 36.22996 -121.24199 24986 ft 429 kts 321°
2026-04-21 22:18 36.25558 -121.26126 24300 ft 436 kts 321°
2026-04-21 22:19 36.28186 -121.28098 23590 ft 445 kts 321°
2026-04-21 22:19 36.30850 -121.30107 22834 ft 450 kts 322°
2026-04-21 22:19 36.33507 -121.32107 22292 ft 445 kts 322°
2026-04-21 22:19 36.36166 -121.34113 21461 ft 448 kts 322°
2026-04-21 22:20 36.38813 -121.36110 20682 ft 443 kts 322°
2026-04-21 22:20 36.41431 -121.38088 19928 ft 439 kts 323°
2026-04-21 22:20 36.44028 -121.40052 19189 ft 435 kts 323°
2026-04-21 22:20 36.46605 -121.42004 18457 ft 433 kts 323°
2026-04-21 22:21 36.49173 -121.43953 17694 ft 432 kts 324°
2026-04-21 22:21 36.51738 -121.45901 16880 ft 432 kts 324°
2026-04-21 22:21 36.54286 -121.47835 16480 ft 422 kts 324°
2026-04-21 22:21 36.56741 -121.49694 16403 ft 405 kts 324°
2026-04-21 22:22 36.59100 -121.51481 16286 ft 389 kts 324°
2026-04-21 22:22 36.61363 -121.53199 16186 ft 375 kts 324°
2026-04-21 22:22 36.63551 -121.54863 16087 ft 361 kts 323°
2026-04-21 22:22 36.65661 -121.56470 16018 ft 349 kts 324°
2026-04-21 22:23 36.67702 -121.58026 15832 ft 342 kts 323°
2026-04-21 22:23 36.69742 -121.59589 15333 ft 345 kts 323°
2026-04-21 22:23 36.71861 -121.61223 15015 ft 377 kts 324°
2026-04-21 22:23 36.74195 -121.63028 14676 ft 407 kts 324°
2026-04-21 22:24 36.76629 -121.64897 14309 ft 412 kts 324°
2026-04-21 22:24 36.79073 -121.66761 13934 ft 411 kts 324°
2026-04-21 22:24 36.81507 -121.68615 13528 ft 408 kts 325°
2026-04-21 22:24 36.83919 -121.70455 13103 ft 405 kts 325°
2026-04-21 22:25 36.86284 -121.72263 12731 ft 403 kts 325°
2026-04-21 22:25 36.88667 -121.74089 12336 ft 401 kts 324°
2026-04-21 22:25 36.91037 -121.75909 11946 ft 399 kts 324°
2026-04-21 22:25 36.93395 -121.77721 11666 ft 395 kts 324°
2026-04-21 22:26 36.95721 -121.79508 11414 ft 390 kts 324°
2026-04-21 22:26 36.98022 -121.81277 11165 ft 386 kts 324°
2026-04-21 22:26 37.00300 -121.83032 10923 ft 383 kts 325°
2026-04-21 22:26 37.02563 -121.84776 10669 ft 381 kts 325°
2026-04-21 22:27 37.04818 -121.86516 10267 ft 383 kts 325°
2026-04-21 22:27 37.07091 -121.88274 9699 ft 386 kts 325°
2026-04-21 22:27 37.09388 -121.90053 9032 ft 391 kts 325°
2026-04-21 22:27 37.11685 -121.91830 8879 ft 382 kts 325°
2026-04-21 22:28 37.13912 -121.93552 8804 ft 371 kts 324°
2026-04-21 22:28 37.16085 -121.95230 8719 ft 363 kts 325°
2026-04-21 22:28 37.18221 -121.96884 8336 ft 360 kts 325°
2026-04-21 22:28 37.20377 -121.98560 7546 ft 369 kts 325°
2026-04-21 22:29 37.22568 -122.00264 6797 ft 374 kts 325°
2026-04-21 22:29 37.24787 -122.01987 6244 ft 373 kts 325°
2026-04-21 22:29 37.26952 -122.03668 6199 ft 359 kts 325°
2026-04-21 22:29 37.29038 -122.05287 6102 ft 347 kts 325°
2026-04-21 22:30 37.31060 -122.06860 6020 ft 336 kts 325°
2026-04-21 22:30 37.33019 -122.08384 5958 ft 327 kts 324°
2026-04-21 22:30 37.34931 -122.09871 5903 ft 319 kts 325°
2026-04-21 22:30 37.36804 -122.11328 5840 ft 315 kts 326°
2026-04-21 22:31 37.38793 -122.12472 5812 ft 315 kts 340°
2026-04-21 22:31 37.40912 -122.13154 5727 ft 314 kts 343°
2026-04-21 22:31 37.43042 -122.13805 5571 ft 316 kts 343°
2026-04-21 22:31 37.45183 -122.14481 5404 ft 319 kts 343°
2026-04-21 22:32 37.47334 -122.15184 5224 ft 320 kts 341°
2026-04-21 22:32 37.49461 -122.15894 5124 ft 322 kts 342°
2026-04-21 22:32 37.51640 -122.16629 4990 ft 326 kts 342°
2026-04-21 22:32 37.53823 -122.17511 4499 ft 336 kts 330°
2026-04-21 22:33 37.55570 -122.19452 3938 ft 341 kts 300°
2026-04-21 22:33 37.56423 -122.22160 3548 ft 315 kts 281°
2026-04-21 22:33 37.57020 -122.24622 3030 ft 282 kts 288°
2026-04-21 22:33 37.57777 -122.26809 2232 ft 263 kts 292°
2026-04-21 22:34 37.58538 -122.28848 1362 ft 251 kts 292°
2026-04-21 22:34 37.59288 -122.30718 895 ft 226 kts 295°
2026-04-21 22:34 37.59978 -122.32426 543 ft 216 kts 294°
2026-04-21 22:34 37.60676 -122.34088 226 ft 211 kts 292°
2026-04-21 22:35 37.61355 -122.35706 87 ft 207 kts 294°
2026-04-21 22:35 37.61985 -122.37196 16 ft 177 kts 292°
2026-04-21 22:35 37.62401 -122.38211 23 ft 53 kts 299°
2026-04-21 22:35 37.62455 -122.38456 18 ft 13 kts 209°
2026-04-21 22:36 37.62273 -122.38570 18 ft 17 kts 209°
2026-04-21 22:36 37.62168 -122.38624 20 ft 16 kts 167°
2026-04-21 22:36 37.62089 -122.38532 19 ft 15 kts 156°
2026-04-21 22:37 37.62074 -122.38569 17 ft 6 kts 296°
2026-04-21 22:37 37.62080 -122.38623 16 ft 6 kts 270°
2026-04-21 22:37 37.62079 -122.38636 16 ft 0 kts 269°
2026-04-21 22:38 37.62080 -122.38636 16 ft 0 kts 269°
2026-04-21 22:38 37.62079 -122.38636 16 ft 0 kts 269°
2026-04-21 22:39 37.62080 -122.38636 16 ft 0 kts 269°
2026-04-21 22:39 37.62079 -122.38636 16 ft 0 kts 269°
2026-04-21 22:39 37.62080 -122.38636 16 ft 0 kts 269°
2026-04-21 22:39 37.62079 -122.38636 16 ft 0 kts 269°
2026-04-21 22:40 37.62080 -122.38636 16 ft 0 kts 269°